Tracking 18984 objects as of 24-Feb-2018
HD Live streaming from Space Station
objects crossing your sky now

FENGYUN 1C DEB

Track FENGYUN 1C DEB now!
10-day predictions


NORAD ID: 36203
Int'l Code: 1999-025DUC
Perigee: 633.9 km
Apogee: 814.0 km
Inclination: 99.2 °
Period: 99.1 minutes
Semi major axis: 7094 km
RCS: 0.0118 m2 (small)
Launch date: May 10, 1999
Source: People's Republic of China (PRC)
Launch site: Taiyaun Space Center, China (TSC)

Note: This is SATELLITE DEBRIS
aabbcc
Your satellite tracking list
Your tracking list is empty




NASA's NSSDC Master Catalog

Two Line Element Set (TLE):
1 36203U 99025DUC 18051.20951502 +.00000429 +00000-0 +10715-3 0  9990
2 36203 099.1523 043.2797 0126907 148.6613 212.2223 14.52720157492699
Source of the keplerian elements: AFSPC